User: anonymous   Login
Location: Eymir
(36.7333°N, 29.7833°E)
Time: 05:16:25
(UTC+00:00)
Language:

Okean 1-7 - Orbit

View from above orbital plane
View from above orbital plane
View from above satellite
View from above satellite

Ground track
Ground track

The orbit is defined by the following mean orbital elements,

1 23317U          26074.80639328 +.00000000 +00000-0 +16505-3 0 00007
2 23317  82.5375 344.1763 0015007 224.6525 135.3490 14.96913194    07
Epoch (UTC): 15 March 2026 19:21:12
Eccentricity: 0.0015007
inclination: 82.5375°
perigee height: 566 km
apogee height: 587 km
right ascension of ascending node: 344.1763°
argument of perigee: 224.6525°
revolutions per day: 14.96913194
mean anomaly at epoch: 135.3490°

The dashed part of the orbit path shows where the satellite is in the earth's shadow,  

DLR